Weather History for Bluefield, WV

Change the Weather History Date:

Monday, February 25, 2013

  Actual Average Record
Temperature  
Mean Temperature 36 °F 40 °F  
Max Temperature 47 °F 48 °F 68 °F (2000)
Min Temperature 25 °F 31 °F -6 °F (1967)
Degree Days  
Heating Degree Days 29 25  
Month to date heating degree days 736 698  
Since 1 July heating degree days 3312 3418  
Cooling Degree Days 0 0  
Month to date cooling degree days 0 0  
Year to date cooling degree days 1 0  
Moisture  
Dew Point 20 °F    
Average Humidity 59    
Maximum Humidity 81    
Minimum Humidity 37    
Precipitation  
Precipitation 0.00 in 0.11 in 2.08 in (1961)
Month to date precipitation 1.27 2.45  
Year to date precipitation 7.27 5.35  
Snow  
Snow 0.00 in - - ()
Month to date snowfall 11.9  
Since 1 July snowfall 40.4  
Snow Depth 0.00 in    
Sea Level Pressure  
Sea Level Pressure 30.06 in    
Wind  
Wind Speed 6 mph (ESE)    
Max Wind Speed 22 mph    
Max Gust Speed 32 mph    
Visibility 10 miles    
Events      
T = Trace of Precipitation, MM = Missing Value Source: NWS Daily Summary

Daily Weather History Graph

Daily Weather History Graph

Search for Another Location

Airport:

Trip Planner

Search our weather history database for the weather conditions in past years. The results will help you decide how hot, cold, wet, or windy it might be!

Date:

Astronomy

Feb. 25, 2013 Rise Set
Actual Time 7:01 AM EST 6:15 PM EST
Civil Twilight 6:34 AM EST 6:41 PM EST
Nautical Twilight 6:04 AM EST 7:11 PM EST
Astronomical Twilight 5:34 AM EST 7:41 PM EST
Moon 6:25 PM EST (2/25) 6:31 AM EST (2/25)
Length of Visible Light 12h 06m
Length of Day
11h 14m
Full, 100% of the Moon is Illuminated
Feb 25
Full
Feb 25
Full
Mar 4
Last Quarter
Mar 11
New
Mar 19
First Quarter

Hourly Weather History & Observations

Time (EST) Temp. Windchill Dew Point Humidity Pressure Visibility Wind Dir Wind Speed Gust Speed Precip Events Conditions
12:52 AM 32.0 °F - 19.0 °F 59% 30.04 in 10.0 mi Calm Calm - N/A   Clear
1:52 AM 30.0 °F 26.5 °F 19.0 °F 64% 30.06 in 10.0 mi NE 3.5 mph - N/A   Clear
2:52 AM 28.0 °F - 19.0 °F 69% 30.06 in 10.0 mi Calm Calm - N/A   Clear
3:52 AM 27.0 °F - 19.0 °F 72% 30.06 in 10.0 mi Calm Calm - N/A   Clear
5:52 AM 25.0 °F 20.7 °F 19.0 °F 78% 30.08 in 10.0 mi ESE 3.5 mph - N/A   Clear
6:52 AM 26.1 °F 21.9 °F 19.0 °F 75% 30.08 in 10.0 mi East 3.5 mph - N/A   Clear
7:52 AM 27.0 °F - 19.0 °F 72% 30.10 in 10.0 mi Calm Calm - N/A   Clear
8:52 AM 28.0 °F 22.8 °F 21.0 °F 75% 30.12 in 10.0 mi East 4.6 mph - N/A   Clear
9:52 AM 32.0 °F 26.4 °F 21.0 °F 64% 30.10 in 10.0 mi East 5.8 mph - N/A   Clear
10:52 AM 35.1 °F 30.1 °F 19.9 °F 54% 30.11 in 10.0 mi SE 5.8 mph - N/A   Clear
11:52 AM 37.9 °F 33.5 °F 19.9 °F 48% 30.10 in 10.0 mi SE 5.8 mph - N/A   Clear
12:52 PM 43.0 °F 39.5 °F 21.0 °F 42% 30.05 in 10.0 mi Variable 5.8 mph - N/A   Clear
1:52 PM 43.0 °F 38.8 °F 21.0 °F 42% 30.04 in 10.0 mi ESE 6.9 mph - N/A   Clear
2:52 PM 45.0 °F 41.8 °F 21.0 °F 39% 30.04 in 10.0 mi SSE 5.8 mph - N/A   Clear
3:52 PM 46.0 °F 41.0 °F 21.9 °F 39% 30.03 in 10.0 mi SSE 10.4 mph - N/A   Clear
4:52 PM 45.0 °F 41.2 °F 21.9 °F 40% 30.01 in 10.0 mi ESE 6.9 mph - N/A   Clear
5:52 PM 43.0 °F 39.5 °F 23.0 °F 45% 30.04 in 10.0 mi Variable 5.8 mph - N/A   Clear
6:52 PM 39.9 °F 34.5 °F 23.0 °F 51% 30.04 in 10.0 mi East 8.1 mph 18.4 mph N/A   Clear
7:52 PM 37.0 °F 29.3 °F 21.9 °F 54% 30.04 in 10.0 mi SE 11.5 mph 16.1 mph N/A   Clear
8:52 PM 35.1 °F 27.4 °F 21.0 °F 57% 30.03 in 10.0 mi ENE 10.4 mph 17.3 mph N/A   Clear
9:52 PM 33.1 °F 22.2 °F 19.9 °F 59% 30.03 in 10.0 mi SE 17.3 mph 27.6 mph N/A   Partly Cloudy
10:52 PM 32.0 °F 21.6 °F 19.9 °F 61% 30.02 in 10.0 mi SE 15.0 mph 27.6 mph N/A   Clear
11:52 PM 33.1 °F 23.9 °F 19.0 °F 56% 30.04 in 10.0 mi SSE 12.7 mph 27.6 mph N/A   Clear